[[{"header":{"parameterUnit":"m.s-1","parameterCategory":2,"la1":30.2991,"la2":30.254,"lo1":-89.0895,"lo2":-89.0444,"dy":0.0017,"dx":0.0017,"nx":28,"ny":28,"refTime":"2025-07-03T03:00:00:Z","depth":"0","parameterNumber":2,"parameterNumberName":"U-component_of_CURRENTS"},"data":[0,0,0,0,0,0,0,0,0,0,0,0,0,0,0,0,0,0,0,0,0,0,0,0,0,0,0,0,0,0,0,0,0,0,0,0,0,0,0,0,0,0,0,0,0,0,0,0,0,0,0,0,0,0,0,0,0,0,0.2105,0.2105,0,0.2046,0.2045,0.2044,0.1937,0.1935,0.1933,0.1932,0.187,0.187,0.187,0,0,0,0,0,0,0,0,0,0,0,0,0,0.2101,0.2102,0.2105,0.2105,0.2105,0.2046,0.2045,0.2044,0.1937,0.1935,0.1933,0.1931,0.187,0.187,0.187,0,0,0,0,0,0,0,0,0,0,0,0,0,0.2074,0.2102,0.2105,0.2048,0.2042,0.2046,0.2045,0.2043,0.1937,0.1935,0.1932,0.193,0.1871,0.187,0.187,0.1918,0,0,0.187,0.187,0,0,0,0,0,0,0,0,0.2076,0.2074,0.2056,0.2052,0.2046,0.2,0.2021,0.2003,0.1938,0.1972,0.1932,0.1929,0.1919,0.1914,0.1902,0.1915,0.1913,0.187,0.187,0.1869,0.1869,0,0,0,0,0,0,0,0.2078,0.2076,0.2077,0.2057,0.205,0.2017,0.201,0.2017,0.1956,0.1969,0.1962,0.1964,0.1914,0.1902,0.19,0.1912,0.187,0.1869,0.1869,0.1869,0.211,0.2116,0,0,0,0,0,0,0.2099,0.2078,0.2079,0.2076,0.206,0.2019,0.2011,0.2014,0.1956,0.1946,0.1966,0.1959,0.1904,0.19,0.1897,0.2003,0.1869,0.1869,0.1869,0.2103,0.2111,0.2118,0,0,0,0,0,0,0.2099,0.21,0.2081,0.2079,0.2075,0.2023,0.2025,0.2014,0.1998,0.1955,0.1943,0.1962,0.1902,0.1898,0.1946,0.1998,0.1869,0.1869,0.2096,0.2106,0.2115,0.2181,0,0,0,0,0,0,0.2099,0.21,0.2107,0.2081,0.2076,0.2102,0.2028,0.2015,0.2005,0.1995,0.1949,0.194,0.19,0.1947,0.1946,0.1995,0.1869,0.2087,0.21,0.2112,0.2171,0.2192,0.221,0,0,0,0,0,0.21,0.2115,0.2108,0.2108,0.2088,0.2105,0.21,0.205,0.2008,0.2022,0.2011,0.1941,0.2024,0.1951,0.1949,0.1999,0.2082,0.2097,0.2111,0.2162,0.2188,0.221,0,0,0,0,0,0,0.2117,0.2106,0.2096,0.2108,0.2119,0.2089,0.2088,0.2066,0.2064,0.2047,0.2,0.1995,0.2073,0.2053,0.1974,0.2123,0.2052,0.2067,0.2093,0.2117,0.2136,0.2087,0.1869,0,0,0,0,0,0.2131,0.2133,0.2136,0.2148,0.2154,0.2128,0.2125,0.2102,0.2098,0.2089,0.2071,0.2084,0.2137,0.2134,0.2175,0.2227,0.2218,0.2278,0.2297,0.2313,0.2285,0.236,0.2381,0.2166,0.2166,0.2166,0,0,0.2138,0.2136,0.2135,0.2152,0.2144,0.2159,0.2118,0.2125,0.2136,0.209,0.2108,0.2153,0.218,0.2255,0.2287,0.2229,0.2383,0.2331,0.2343,0.2306,0.2377,0.2397,0.2414,0.2176,0.2174,0.2173,0,0,0.2155,0.216,0.2166,0.2181,0.219,0.2186,0.2198,0.2193,0.2189,0.2235,0.2236,0.2309,0.2347,0.2383,0.2406,0.2567,0.2504,0.2606,0.262,0.2695,0.271,0.2723,0.2759,0.2775,0.2587,0.2587,0.2587,0,0.217,0.2171,0.2177,0.2193,0.2199,0.2203,0.2217,0.2233,0.2249,0.2268,0.2254,0.2383,0.2405,0.2504,0.2568,0.2598,0.2619,0.2505,0.271,0.2723,0.2735,0.2768,0.2784,0.2592,0.2592,0.2591,0.2591,0,0.2185,0.2192,0.2203,0.2218,0.2238,0.2256,0.2283,0.2313,0.2319,0.2336,0.2445,0.2503,0.2558,0.2625,0.2628,0.2756,0.2738,0.2737,0.2618,0.2758,0.2788,0.2803,0.2599,0.2598,0.2596,0.2595,0,0,0.2211,0.2209,0.2213,0.2213,0.2248,0.2262,0.2311,0.2358,0.2376,0.2445,0.2486,0.2628,0.2648,0.2682,0.2731,0.28,0.2924,0.2796,0.2798,0.2774,0.3068,0.3056,0.307,0.2953,0.2956,0.2958,0.3058,0,0.2224,0.2227,0.2234,0.2255,0.2263,0.2291,0.233,0.2378,0.2421,0.2473,0.2567,0.2638,0.2674,0.2709,0.2793,0.2896,0.2966,0.2895,0.2985,0.2986,0.2911,0.3089,0.3017,0.31,0.3072,0.3075,0.3076,0,0.2244,0.2238,0.2241,0.2252,0.2259,0.2278,0.2327,0.2363,0.2452,0.2486,0.257,0.2627,0.2752,0.2762,0.2955,0.2907,0.2988,0.3062,0.3068,0.3027,0.3003,0.2961,0.3128,0.2976,0.3099,0.3097,0.3096,0,0.2245,0.2252,0.2242,0.2248,0.2267,0.2279,0.2298,0.2369,0.24,0.249,0.2522,0.2657,0.2722,0.2858,0.2998,0.2983,0.3198,0.319,0.3255,0.3253,0.3191,0.3179,0.3164,0.3331,0.333,0.333,0.333,0,0.2258,0.2257,0.2232,0.2231,0.2231,0.2256,0.2279,0.2319,0.2382,0.2431,0.2517,0.2581,0.2754,0.2885,0.3007,0.3176,0.3203,0.328,0.3297,0.3221,0.3211,0.3072,0.2978,0.3334,0.3333,0.3332,0.3332,0,0.2267,0.225,0.2241,0.2233,0.2229,0.2231,0.2248,0.2271,0.2328,0.2392,0.2419,0.2548,0.2716,0.2881,0.3102,0.3182,0.3251,0.3394,0.3273,0.3275,0.318,0.3093,0.3013,0.2954,0.348,0.348,0.3481,0,0.2264,0.2256,0.223,0.2215,0.2208,0.2204,0.2207,0.2245,0.2272,0.2377,0.2411,0.2567,0.2686,0.2976,0.3164,0.3371,0.3258,0.3398,0.3371,0.3181,0.3098,0.2959,0.2905,0.3325,0.3324,0.3324,0.3323,0,0.2261,0.2249,0.2235,0.2199,0.2184,0.2172,0.2178,0.2186,0.2246,0.2302,0.2396,0.2492,0.276,0.293,0.3181,0.3316,0.32,0.339,0.3241,0.302,0.282,0.2768,0.3216,0.3317,0.3318,0.3318,0.3319,0.3319,0.2254,0.2238,0.2207,0.2181,0.2157,0.2136,0.2116,0.2142,0.2172,0.2239,0.2351,0.2464,0.2674,0.3024,0.3142,0.321,0.3179,0.3157,0.3083,0.2971,0.2861,0.3279,0.3368,0.3369,0.337,0.3371,0.3371,0,0.2229,0.221,0.2186,0.2136,0.2098,0.2101,0.209,0.2067,0.2082,0.2179,0.226,0.2413,0.2591,0.2777,0.2936,0.2884,0.2838,0.2802,0.2573,0.2554,0.2981,0.292,0.2856,0.2856,0.2856,0.2857,0.2857,0.2857,0.2207,0.2176,0.2162,0.2085,0.2051,0.1973,0.1957,0.1942,0.1977,0.2012,0.2069,0.2165,0.2309,0.243,0.246,0.2481,0.2283,0.2221,0.2183,0.2437,0.2463,0.2487,0.2408,0.2238,0.2238,0.1717,0.1712,0.1709]},{"header":{"parameterUnit":"m.s-1","parameterCategory":2,"la1":30.2991,"la2":30.254,"lo1":-89.0895,"lo2":-89.0444,"dy":0.0017,"dx":0.0017,"nx":28,"ny":28,"refTime":"2025-07-03T03:00:00:Z","depth":"0","parameterNumber":3,"parameterNumberName":"V-component_of_CURRENTS"},"data":[0,0,0,0,0,0,0,0,0,0,0,0,0,0,0,0,0,0,0,0,0,0,0,0,0,0,0,0,0,0,0,0,0,0,0,0,0,0,0,0,0,0,0,0,0,0,0,0,0,0,0,0,0,0,0,0,0,0,-0.0075,-0.0075,0,-0.0046,-0.0045,-0.0045,-0.0063,-0.0064,-0.0065,-0.0066,-0.0129,-0.013,-0.0131,0,0,0,0,0,0,0,0,0,0,0,0,0,-0.0125,-0.0124,-0.0075,-0.0075,-0.0075,-0.0046,-0.0045,-0.0045,-0.0063,-0.0064,-0.0065,-0.0066,-0.0129,-0.013,-0.0131,0,0,0,0,0,0,0,0,0,0,0,0,0,-0.0099,-0.0123,-0.0075,-0.0081,-0.0081,-0.0046,-0.0045,-0.0045,-0.0063,-0.0064,-0.0065,-0.0067,-0.0128,-0.013,-0.0131,-0.0111,0,0,-0.0135,-0.0135,0,0,0,0,0,0,0,0,-0.0101,-0.0098,-0.008,-0.008,-0.008,-0.006,-0.0086,-0.0072,-0.0062,-0.0069,-0.0066,-0.0067,-0.0114,-0.0116,-0.0106,-0.0114,-0.0117,-0.0135,-0.0136,-0.0136,-0.0137,0,0,0,0,0,0,0,-0.0103,-0.0099,-0.0063,-0.008,-0.008,-0.0077,-0.0075,-0.0083,-0.0085,-0.0068,-0.007,-0.0067,-0.0115,-0.0104,-0.0108,-0.0118,-0.0135,-0.0136,-0.0137,-0.0137,-0.0076,-0.0074,0,0,0,0,0,0,-0.0107,-0.01,-0.0064,-0.0062,-0.0095,-0.0075,-0.0073,-0.0065,-0.0083,-0.0087,-0.0066,-0.0068,-0.0102,-0.0106,-0.011,-0.0063,-0.0136,-0.0137,-0.0138,-0.0078,-0.0075,-0.0073,0,0,0,0,0,0,-0.0108,-0.0104,-0.0065,-0.0082,-0.0077,-0.0073,-0.0063,-0.0063,-0.0059,-0.008,-0.0086,-0.0063,-0.0103,-0.0108,-0.0098,-0.0067,-0.0138,-0.0139,-0.0081,-0.0077,-0.0074,0.0015,0,0,0,0,0,0,-0.0109,-0.0104,-0.0099,-0.0082,-0.0076,-0.004,-0.0062,-0.0062,-0.0055,-0.0058,-0.008,-0.0086,-0.0104,-0.0095,-0.0099,-0.007,-0.014,-0.0084,-0.0079,-0.0075,0.0009,0.0022,0.0032,0,0,0,0,0,-0.0111,-0.0103,-0.0099,-0.0095,-0.0069,-0.0039,-0.0035,-0.0038,-0.0054,-0.0041,-0.0046,-0.0086,-0.007,-0.0094,-0.0099,-0.007,-0.0086,-0.0081,-0.0076,0.0004,0.0019,0.0032,0,0,0,0,0,0,-0.0138,-0.0103,-0.0099,-0.0085,-0.0061,-0.0043,-0.0035,-0.0035,-0.0026,-0.0034,-0.0059,-0.0064,-0.004,-0.0062,-0.0089,-0.0035,-0.0083,-0.0078,-0.0021,-0.0007,0.0004,-0.0014,-0.0141,0,0,0,0,0,-0.0135,-0.0112,-0.0085,-0.0074,-0.006,-0.0046,-0.0036,-0.0032,-0.0023,-0.0021,-0.0028,-0.0031,-0.0017,-0.0021,-0.0016,0.0006,-0.0036,0.0025,0.0037,0.0046,0.0032,0.001,0.0017,-0.0055,-0.0055,-0.0055,0,0,-0.0146,-0.0122,-0.0112,-0.0076,-0.006,-0.0025,-0.0044,-0.0023,0.0007,-0.003,0.0005,0.0006,-0.0001,0.0036,0.0044,0.0016,0.005,0.0053,0.0061,0.004,0.0016,0.0023,0.0029,-0.0052,-0.0052,-0.0053,0,0,-0.0142,-0.0129,-0.0101,-0.0071,-0.0037,-0.0017,-0.001,0.002,0.0032,0.0071,0.0061,0.0082,0.0094,0.0105,0.0109,0.0183,0.0114,0.0188,0.0222,0.0204,0.0208,0.0212,0.0182,0.0183,0.0189,0.0189,0.019,0,-0.0161,-0.0113,-0.0091,-0.0052,-0.0025,-0.0011,0.0027,0.0052,0.0084,0.0099,0.009,0.0131,0.013,0.0168,0.0205,0.0206,0.0173,0.017,0.0215,0.0218,0.022,0.0188,0.0187,0.0194,0.0194,0.0193,0.0193,0,-0.0123,-0.0085,-0.0067,-0.0003,0.0027,0.0062,0.0102,0.0132,0.0149,0.0171,0.0212,0.0222,0.0236,0.0259,0.0254,0.0283,0.025,0.0233,0.0173,0.0232,0.0196,0.0193,0.0201,0.02,0.0198,0.0197,0,0,-0.0169,-0.006,-0.0053,-0.0008,0.0058,0.0089,0.0143,0.0198,0.0225,0.0259,0.0289,0.0338,0.0325,0.0329,0.0328,0.0323,0.0331,0.0287,0.0284,0.0244,0.0275,0.0259,0.0253,0.0315,0.0315,0.0315,0.0248,0,-0.0147,-0.0052,-0.0008,0.0073,0.0125,0.0162,0.0212,0.0258,0.0289,0.0323,0.0335,0.0362,0.0357,0.0362,0.0362,0.0339,0.0325,0.035,0.0234,0.0231,0.0198,0.025,0.0293,0.0237,0.0244,0.0244,0.0243,0,-0.0119,-0.0055,0.0036,0.0132,0.0153,0.0196,0.0268,0.0314,0.036,0.0377,0.0394,0.0393,0.0408,0.0386,0.0353,0.0364,0.0322,0.0298,0.0294,0.0238,0.0209,0.0178,0.0231,0.0167,0.0238,0.0239,0.0239,0,-0.0131,-0.0027,0.0052,0.0087,0.0192,0.0225,0.0268,0.0325,0.0363,0.0396,0.0412,0.0418,0.0416,0.0374,0.0338,0.0336,0.0284,0.027,0.0211,0.0209,0.02,0.0197,0.0161,0.0227,0.0227,0.0227,0.0227,0,-0.0107,-0.0048,0.0051,0.0098,0.0168,0.0227,0.0288,0.0329,0.0375,0.0415,0.0425,0.0446,0.041,0.0385,0.0338,0.027,0.0277,0.0215,0.0194,0.0236,0.0237,0.0142,0.0092,0.0225,0.0225,0.0226,0.0226,0,-0.0111,-0.0042,0.0046,0.0147,0.0173,0.022,0.0298,0.0339,0.0377,0.0422,0.0429,0.0456,0.0431,0.0388,0.0323,0.0268,0.0171,0.0175,0.0225,0.021,0.0093,0.0047,-0.0051,-0.0074,0.0093,0.0092,0.0091,0,-0.009,-0.0039,0.0068,0.0108,0.0155,0.0223,0.0269,0.0331,0.037,0.0433,0.0452,0.045,0.0473,0.0379,0.0294,0.0202,0.0142,0.0148,0.0156,0.0091,0.0024,-0.0004,-0.0018,0.0183,0.0183,0.0183,0.0183,0,-0.0055,-0.0024,0.0046,0.0119,0.0175,0.024,0.0303,0.0337,0.0406,0.0453,0.0503,0.0528,0.0465,0.0427,0.0306,0.0231,0.0113,0.0145,0.0073,0.0084,0.0056,0.0023,0.0209,0.0185,0.0185,0.0185,0.0185,0.0184,-0.0042,-0.0001,0.0076,0.0139,0.0198,0.0256,0.0306,0.0376,0.045,0.0552,0.0553,0.0645,0.0569,0.0433,0.0304,0.0113,0.0094,0.0067,0.0013,-0.0012,-0.0021,0.016,0.0115,0.0114,0.0114,0.0114,0.0113,0,-0.0021,0.0023,0.0088,0.0167,0.0218,0.0248,0.0333,0.0394,0.0488,0.0616,0.0688,0.0751,0.0641,0.0484,0.0224,0.0041,-0.0016,-0.006,-0.0076,-0.0087,0.0077,0.0096,0.0053,0.0053,0.0053,0.0053,0.0053,0.0053,-0.0004,0.0052,0.0083,0.0165,0.0212,0.0287,0.0335,0.0442,0.0555,0.073,0.0852,0.0931,0.0843,0.0353,0.0016,-0.0075,-0.0195,-0.0229,-0.0309,-0.0183,-0.0175,-0.0166,-0.0157,-0.0253,-0.0254,-0.0409,-0.0411,-0.0412]}],[{"header":{"parameterUnit":"m.s-1","parameterCategory":2,"la1":30.2991,"la2":30.254,"lo1":-89.0895,"lo2":-89.0444,"dy":0.0017,"dx":0.0017,"nx":28,"ny":28,"refTime":"2025-07-03T03:00:00:Z","depth":"2","parameterNumber":2,"parameterNumberName":"U-component_of_CURRENTS"},"data":[0,0,0,0,0,0,0,0,0,0,0,0,0,0,0,0,0,0,0,0,0,0,0,0,0,0,0,0,0,0,0,0,0,0,0,0,0,0,0,0,0,0,0,0,0,0,0,0,0,0,0,0,0,0,0,0,0,0,0.1314,0.1314,0,0.1324,0.1324,0.1325,0.1377,0.1378,0.138,0.1381,0.1436,0.1436,0.1437,0,0,0,0,0,0,0,0,0,0,0,0,0,0.1409,0.1407,0.1314,0.1314,0.1314,0.1324,0.1324,0.1325,0.1377,0.1378,0.138,0.1381,0.1436,0.1436,0.1437,0,0,0,0,0,0,0,0,0,0,0,0,0,0.139,0.1406,0.1314,0.134,0.1342,0.1324,0.1324,0.1325,0.1377,0.1379,0.138,0.1382,0.1436,0.1436,0.1437,0.1408,0,0,0.1439,0.1439,0,0,0,0,0,0,0,0,0.1391,0.1386,0.1336,0.1338,0.1341,0.135,0.1379,0.1354,0.1376,0.1365,0.1381,0.1383,0.1409,0.1412,0.1412,0.1411,0.1413,0.1439,0.144,0.144,0.144,0,0,0,0,0,0,0,0.1392,0.1387,0.132,0.1336,0.1339,0.1375,0.1374,0.1374,0.138,0.1366,0.137,0.1368,0.1411,0.1411,0.1414,0.1414,0.1439,0.144,0.144,0.144,0.1536,0.1538,0,0,0,0,0,0,0.1381,0.1387,0.1319,0.132,0.1368,0.1372,0.137,0.1346,0.1379,0.1385,0.1367,0.137,0.1409,0.1413,0.1416,0.1479,0.144,0.144,0.1441,0.1534,0.1536,0.1538,0,0,0,0,0,0,0.1383,0.1374,0.1319,0.1354,0.135,0.1367,0.1341,0.1346,0.1371,0.1378,0.1386,0.139,0.1411,0.1415,0.146,0.1478,0.1441,0.1441,0.1531,0.1534,0.1537,0.1545,0,0,0,0,0,0,0.1385,0.1374,0.1367,0.1352,0.1347,0.1318,0.1339,0.1345,0.1365,0.1371,0.14,0.1405,0.1412,0.1459,0.146,0.1479,0.1442,0.1528,0.1533,0.1536,0.1542,0.1548,0.1553,0,0,0,0,0,0.1388,0.1369,0.1366,0.1359,0.1331,0.1318,0.1319,0.134,0.1364,0.137,0.1414,0.1406,0.1486,0.1461,0.1462,0.1481,0.1526,0.1531,0.1536,0.1539,0.1547,0.1553,0,0,0,0,0,0,0.1421,0.1372,0.1368,0.1339,0.1333,0.1327,0.1333,0.1348,0.1384,0.1402,0.1422,0.143,0.148,0.1485,0.1457,0.1527,0.1508,0.1514,0.1511,0.1517,0.1523,0.1523,0.1442,0,0,0,0,0,0.1417,0.1385,0.1357,0.1341,0.1332,0.1336,0.134,0.1352,0.1372,0.139,0.1414,0.1453,0.1493,0.151,0.1537,0.1561,0.1589,0.1582,0.1587,0.1592,0.1598,0.1673,0.1685,0.1554,0.1554,0.1554,0,0,0.1431,0.1397,0.1385,0.1346,0.1342,0.1335,0.1344,0.1348,0.1365,0.1389,0.1432,0.1469,0.1508,0.1549,0.1571,0.1557,0.1645,0.1598,0.1601,0.1605,0.1679,0.1692,0.1703,0.1557,0.1557,0.1556,0,0,0.1437,0.1404,0.1383,0.1369,0.1354,0.135,0.1355,0.1355,0.1378,0.141,0.1453,0.1509,0.1542,0.1586,0.161,0.1662,0.1674,0.1674,0.1693,0.1766,0.1777,0.1787,0.1832,0.1846,0.1672,0.1672,0.1672,0,0.1467,0.1419,0.1383,0.1364,0.1362,0.1358,0.1358,0.1369,0.1396,0.1432,0.1429,0.1544,0.1561,0.1646,0.1665,0.1671,0.1711,0.1656,0.1771,0.1781,0.1792,0.1836,0.1851,0.1673,0.1673,0.1673,0.1673,0,0.1453,0.1426,0.1415,0.138,0.1377,0.1373,0.1372,0.1396,0.1421,0.1448,0.1535,0.1573,0.1652,0.1662,0.1672,0.1763,0.1767,0.1769,0.1745,0.1805,0.1848,0.1864,0.1674,0.1674,0.1674,0.1673,0,0,0.1504,0.142,0.1423,0.1407,0.1386,0.1382,0.1409,0.144,0.1486,0.1521,0.1595,0.1659,0.1702,0.1735,0.1767,0.1813,0.1901,0.1818,0.1821,0.1848,0.2057,0.1947,0.1953,0.1929,0.1932,0.1934,0.2055,0,0.1517,0.147,0.1436,0.1429,0.1408,0.1413,0.1438,0.1475,0.1517,0.1583,0.1648,0.172,0.1724,0.1769,0.1826,0.1894,0.1946,0.1868,0.2009,0.2013,0.1896,0.1969,0.1713,0.1791,0.2071,0.2073,0.2075,0,0.1529,0.1487,0.1466,0.1437,0.1435,0.1444,0.1499,0.152,0.1607,0.1646,0.174,0.179,0.1891,0.1866,0.2022,0.1978,0.2022,0.2053,0.206,0.1965,0.1932,0.1781,0.1809,0.2102,0.2099,0.2097,0.2096,0,0.1573,0.1522,0.1503,0.1492,0.146,0.1485,0.1492,0.156,0.1596,0.1699,0.1754,0.1877,0.1952,0.2036,0.211,0.2082,0.2256,0.223,0.2174,0.2166,0.1978,0.1948,0.2334,0.2334,0.2333,0.2333,0.2333,0,0.1592,0.1586,0.1521,0.151,0.1519,0.1505,0.1553,0.1586,0.1656,0.1719,0.1798,0.1881,0.2,0.2107,0.2153,0.2219,0.2309,0.2192,0.2199,0.1972,0.1941,0.2232,0.2219,0.2337,0.2336,0.2336,0.2335,0,0.1643,0.1598,0.1573,0.1535,0.1532,0.1546,0.1558,0.1596,0.1663,0.1752,0.1787,0.1923,0.2058,0.2156,0.2297,0.2271,0.2335,0.2332,0.204,0.2009,0.2181,0.2168,0.2281,0.2278,0.2276,0.2274,0.2273,0,0.1649,0.1636,0.1593,0.1578,0.1561,0.1568,0.1576,0.1608,0.1643,0.1776,0.1821,0.1975,0.2061,0.2212,0.2155,0.2197,0.234,0.2022,0.1906,0.2185,0.2182,0.2171,0.216,0.1669,0.1663,0.1658,0.1654,0,0.1654,0.1653,0.1625,0.1594,0.1587,0.1573,0.1584,0.1604,0.1661,0.173,0.1829,0.1903,0.198,0.1901,0.1933,0.1918,0.1984,0.1913,0.2325,0.1705,0.1614,0.1608,0.1617,0.1607,0.1612,0.1615,0.1617,0.1619,0.1661,0.1649,0.1609,0.1589,0.1577,0.1556,0.154,0.1556,0.1585,0.1643,0.1753,0.177,0.1713,0.1603,0.1588,0.1554,0.1664,0.1617,0.1631,0.1652,0.1542,0.145,0.1392,0.1395,0.1398,0.1401,0.1403,0,0.1621,0.1612,0.1593,0.1542,0.1513,0.1533,0.152,0.1489,0.1488,0.1528,0.1573,0.1358,0.1281,0.1318,0.1128,0.109,0.1059,0.1128,0.1081,0.1123,0.1162,0.1029,0.0742,0.0742,0.0741,0.0741,0,0,0.1587,0.1551,0.1541,0.1469,0.1459,0.1413,0.14,0.1357,0.1335,0.1276,0.1223,0.1235,0.1211,0.0952,0.0885,0.0829,0.0993,0.0789,0.1293,0.1277,0.1316,0.1387,0.1221,0,0,0,0,0]},{"header":{"parameterUnit":"m.s-1","parameterCategory":2,"la1":30.2991,"la2":30.254,"lo1":-89.0895,"lo2":-89.0444,"dy":0.0017,"dx":0.0017,"nx":28,"ny":28,"refTime":"2025-07-03T03:00:00:Z","depth":"2","parameterNumber":3,"parameterNumberName":"V-component_of_CURRENTS"},"data":[0,0,0,0,0,0,0,0,0,0,0,0,0,0,0,0,0,0,0,0,0,0,0,0,0,0,0,0,0,0,0,0,0,0,0,0,0,0,0,0,0,0,0,0,0,0,0,0,0,0,0,0,0,0,0,0,0,0,0.0006,0.0006,0,-0.0022,-0.0022,-0.0022,-0.0026,-0.0026,-0.0026,-0.0026,-0.0081,-0.0082,-0.0084,0,0,0,0,0,0,0,0,0,0,0,0,0,0.0043,0.0042,0.0006,0.0006,0.0005,-0.0022,-0.0022,-0.0023,-0.0026,-0.0026,-0.0026,-0.0026,-0.008,-0.0082,-0.0084,0,0,0,0,0,0,0,0,0,0,0,0,0,0.0024,0.0042,0.0006,-0.0002,-0.0003,-0.0022,-0.0022,-0.0023,-0.0026,-0.0026,-0.0026,-0.0026,-0.008,-0.0082,-0.0084,-0.0099,0,0,-0.0091,-0.0092,0,0,0,0,0,0,0,0,0.0025,0.0023,-0.0,-0.0002,-0.0003,-0.0023,-0.003,-0.005,-0.0026,-0.0015,-0.0026,-0.0026,-0.0065,-0.0069,-0.007,-0.0101,-0.0104,-0.0091,-0.0092,-0.0093,-0.0094,0,0,0,0,0,0,0,0.0027,0.0024,-0.0002,-0.0001,-0.0003,-0.001,-0.0012,-0.0033,-0.0039,-0.0016,-0.0017,-0.0024,-0.0066,-0.0068,-0.0072,-0.0104,-0.0091,-0.0093,-0.0094,-0.0095,-0.0187,-0.0188,0,0,0,0,0,0,0.0026,0.0026,-0.0002,-0.0004,0.0009,-0.001,-0.0013,-0.0014,-0.0038,-0.0042,-0.0024,-0.0024,-0.0064,-0.0069,-0.0074,-0.0075,-0.0093,-0.0095,-0.0097,-0.0186,-0.0187,-0.0188,0,0,0,0,0,0,0.0027,0.0024,-0.0001,0.0008,0.0004,-0.0011,-0.0013,-0.0015,-0.0023,-0.0044,-0.0048,-0.0031,-0.0064,-0.0071,-0.0096,-0.0078,-0.0096,-0.0098,-0.0185,-0.0186,-0.0188,-0.0088,0,0,0,0,0,0,0.0028,0.0025,0.0022,0.0008,0.0004,-0.0003,-0.0014,-0.0016,-0.0029,-0.0029,-0.0052,-0.0056,-0.0065,-0.0093,-0.0098,-0.0081,-0.01,-0.0183,-0.0185,-0.0187,-0.009,-0.0086,-0.0083,0,0,0,0,0,0.003,0.0032,0.0023,0.0019,0.0001,-0.0003,-0.0005,-0.0014,-0.0029,-0.0024,-0.0049,-0.0056,-0.011,-0.0095,-0.0101,-0.0084,-0.0182,-0.0185,-0.0187,-0.0092,-0.0087,-0.0083,0,0,0,0,0,0,0.0037,0.0031,0.0021,0.0017,0.0009,-0.0004,-0.0005,-0.0019,-0.0034,-0.0041,-0.0064,-0.0069,-0.0086,-0.0115,-0.0098,-0.0125,-0.0151,-0.0155,-0.0076,-0.0072,-0.0069,-0.0025,-0.0102,0,0,0,0,0,0.0038,0.0045,0.003,0.0026,0.0023,0.0004,-0.0002,-0.0009,-0.0026,-0.0033,-0.005,-0.0081,-0.0102,-0.011,-0.0135,-0.0146,-0.0168,-0.0148,-0.0144,-0.0141,-0.0115,-0.0155,-0.0151,-0.0197,-0.0197,-0.0197,0,0,0.0037,0.0035,0.0035,0.0029,0.002,0.0036,0.0002,-0.0004,0.0012,-0.0038,-0.003,-0.0069,-0.0107,-0.0112,-0.0123,-0.013,-0.014,-0.0144,-0.0139,-0.0116,-0.0157,-0.0152,-0.0148,-0.0198,-0.0198,-0.0198,0,0,0.005,0.0037,0.0052,0.0057,0.0048,0.0046,0.0043,0.0029,0.0025,0.0018,-0.0014,-0.0042,-0.0076,-0.0085,-0.0099,-0.01,-0.0124,-0.0123,-0.0055,-0.0094,-0.0089,-0.0086,-0.0095,-0.0093,-0.0115,-0.0115,-0.0115,0,0.004,0.0066,0.0053,0.0076,0.0087,0.0056,0.0081,0.0078,0.0057,0.0061,0.0031,-0.0018,-0.0054,-0.0048,-0.0045,-0.0083,-0.0106,-0.0056,-0.0084,-0.0081,-0.0078,-0.009,-0.0088,-0.011,-0.0111,-0.0111,-0.0112,0,0.0076,0.0097,0.0106,0.0135,0.0147,0.0158,0.0159,0.0163,0.0144,0.014,0.0125,0.0071,0.0048,0.0022,-0.0004,-0.0005,-0.0025,-0.0074,-0.0078,-0.0066,-0.0081,-0.0081,-0.0104,-0.0105,-0.0107,-0.0108,0,0,0.0036,0.0117,0.0117,0.0155,0.018,0.0194,0.0228,0.0251,0.0277,0.024,0.0265,0.0215,0.0178,0.0157,0.0106,0.0077,0.0072,0.0021,0.0016,0.0042,0.0008,0.0006,0.0005,0.0017,0.0018,0.0018,-0.0003,0,0.0059,0.0135,0.0167,0.0234,0.0271,0.0282,0.0324,0.0342,0.0342,0.0358,0.0303,0.0294,0.0232,0.0212,0.0179,0.0097,0.0074,0.0084,-0.0034,-0.0036,-0.0015,0.0005,-0.0001,-0.0019,-0.0003,-0.0003,-0.0003,0,0.0072,0.0129,0.0208,0.0304,0.032,0.0356,0.042,0.0454,0.0477,0.0473,0.0461,0.0415,0.0386,0.0306,0.0213,0.0222,0.0133,0.0063,0.0059,0.0029,-0.0039,-0.0036,-0.002,-0.0004,-0.0004,-0.0004,-0.0004,0,0.0055,0.0152,0.0224,0.0254,0.0353,0.0387,0.0433,0.0479,0.0519,0.0539,0.0558,0.0515,0.0485,0.038,0.0254,0.0226,0.0146,0.0078,-0.0002,-0.0003,-0.0042,-0.0047,0.0004,0.0004,0.0004,0.0004,0.0005,0,0.0066,0.0115,0.0222,0.026,0.0342,0.0402,0.0478,0.0519,0.0578,0.0639,0.0609,0.0632,0.0496,0.0435,0.0304,0.0178,0.0181,0.0034,-0.0006,-0.001,-0.0011,-0.0035,-0.0039,0.0004,0.0004,0.0004,0.0004,0,0.0034,0.0103,0.0189,0.0303,0.0337,0.0391,0.0506,0.0569,0.0621,0.0697,0.0703,0.0713,0.0647,0.0521,0.0361,0.0245,0.0113,0.0056,0.0085,0.0049,-0.0021,-0.002,-0.0028,-0.0028,-0.0028,-0.0028,-0.0028,0,0.0034,0.0077,0.0204,0.0261,0.0311,0.0401,0.0474,0.0566,0.0644,0.0748,0.0791,0.0767,0.0766,0.0577,0.0369,0.0176,0.0132,0.0035,-0.003,0.0015,-0.0023,-0.0022,-0.0021,-0.0044,-0.0044,-0.0044,-0.0044,0,0.004,0.0077,0.0158,0.0269,0.0352,0.0455,0.0566,0.0631,0.0752,0.0829,0.0926,0.0934,0.078,0.0589,0.0342,0.021,0.0071,0.0024,0.0058,-0.0031,-0.0001,-0.0038,-0.0037,-0.0046,-0.0046,-0.0046,-0.0046,-0.0046,0.0043,0.0098,0.0206,0.0306,0.0397,0.0514,0.059,0.072,0.0849,0.0969,0.0992,0.0976,0.0753,0.0415,0.0246,0.0069,0.0058,-0.0051,-0.005,-0.0049,-0.0044,-0.0016,-0.006,-0.006,-0.006,-0.006,-0.006,0,0.0087,0.0154,0.0248,0.0382,0.0473,0.0513,0.0665,0.0743,0.0889,0.0962,0.1032,0.0804,0.0611,0.0392,0.0114,-0.0048,-0.0052,-0.0087,-0.0086,-0.0084,-0.0082,-0.0078,-0.0104,-0.0104,-0.0104,-0.0105,0,0,0.0125,0.0228,0.0285,0.0436,0.0504,0.0605,0.068,0.0801,0.0864,0.094,0.0907,0.0837,0.057,0.0333,0.0141,0.0018,0.0011,0.0008,0.0054,0.008,0.0084,-0.0054,-0.0044,0,0,0,0,0]}],[{"header":{"parameterUnit":"m.s-1","parameterCategory":2,"la1":30.2991,"la2":30.254,"lo1":-89.0895,"lo2":-89.0444,"dy":0.0017,"dx":0.0017,"nx":28,"ny":28,"refTime":"2025-07-03T03:00:00:Z","depth":"4","parameterNumber":2,"parameterNumberName":"U-component_of_CURRENTS"},"data":[0,0,0,0,0,0,0,0,0,0,0,0,0,0,0,0,0,0,0,0,0,0,0,0,0,0,0,0,0,0,0,0,0,0,0,0,0,0,0,0,0,0,0,0,0,0,0,0,0,0,0,0,0,0,0,0,0,0,0.0087,0.0088,0,0.0192,0.0192,0.0193,0.0269,0.027,0.0271,0.0272,0.0287,0.0286,0.0286,0,0,0,0,0,0,0,0,0,0,0,0,0,-0.0037,-0.0035,0.0086,0.0088,0.009,0.0191,0.0192,0.0193,0.0269,0.027,0.0272,0.0273,0.0287,0.0287,0.0286,0,0,0,0,0,0,0,0,0,0,0,0,0,0.0033,-0.0035,0.0086,0.0143,0.015,0.0191,0.0192,0.0194,0.0269,0.027,0.0272,0.0274,0.0287,0.0287,0.0286,0.0248,0,0,0.0283,0.0283,0,0,0,0,0,0,0,0,0.0029,0.0037,0.0133,0.014,0.0147,0.0223,0.0155,0.0209,0.0268,0.0219,0.0273,0.0274,0.0259,0.0261,0.0272,0.0249,0.025,0.0283,0.0282,0.0282,0.0282,0,0,0,0,0,0,0,0.0024,0.0033,0.0123,0.0135,0.0143,0.0168,0.0179,0.0165,0.0223,0.0223,0.023,0.0249,0.0262,0.0272,0.0272,0.025,0.0283,0.0282,0.0282,0.0281,0.0254,0.0254,0,0,0,0,0,0,0.0018,0.0028,0.012,0.0127,0.0096,0.0169,0.0182,0.0193,0.0226,0.0234,0.0247,0.0252,0.0273,0.0273,0.0273,0.032,0.0282,0.0281,0.0281,0.0254,0.0254,0.0254,0,0,0,0,0,0,0.0015,0.0025,0.0116,0.0084,0.0098,0.017,0.0183,0.0195,0.0259,0.0246,0.0252,0.0307,0.0274,0.0274,0.0291,0.0318,0.0281,0.028,0.0254,0.0254,0.0254,0.0357,0,0,0,0,0,0,0.001,0.0023,0.0042,0.0083,0.01,0.0179,0.0182,0.0196,0.0267,0.0276,0.0297,0.0298,0.0276,0.0292,0.029,0.0316,0.0279,0.0255,0.0254,0.0254,0.0354,0.036,0.0366,0,0,0,0,0,0.0005,0.0022,0.0042,0.0054,0.0119,0.0181,0.0193,0.0245,0.0269,0.0307,0.0308,0.03,0.0288,0.0292,0.0289,0.0316,0.0255,0.0254,0.0254,0.0351,0.0359,0.0366,0,0,0,0,0,0,-0.0017,0.0032,0.0056,0.0088,0.0151,0.0197,0.0251,0.0274,0.0309,0.0327,0.0305,0.0305,0.0325,0.0298,0.0303,0.03,0.0266,0.0265,0.0341,0.0348,0.0354,0.0378,0.0278,0,0,0,0,0,-0.0016,0.0016,0.007,0.0108,0.015,0.0209,0.0248,0.0282,0.0313,0.0335,0.0343,0.0332,0.031,0.0317,0.0297,0.0305,0.0268,0.0313,0.0319,0.0325,0.0339,0.0288,0.0291,0.0252,0.0252,0.0252,0,0,-0.0007,0.0023,0.0046,0.0108,0.0171,0.0232,0.0239,0.0321,0.0358,0.0324,0.0386,0.0362,0.0315,0.0321,0.0326,0.0313,0.0317,0.0324,0.033,0.0341,0.0288,0.0292,0.0295,0.0252,0.0252,0.0252,0,0,0.0033,0.0061,0.0114,0.0166,0.0259,0.0282,0.0318,0.0389,0.0419,0.0457,0.0428,0.0421,0.0418,0.0379,0.0356,0.0378,0.0348,0.0379,0.044,0.0391,0.0394,0.0397,0.0367,0.0366,0.0386,0.0386,0.0387,0,0.0046,0.0108,0.0143,0.0213,0.0264,0.0314,0.0387,0.0413,0.047,0.0479,0.0494,0.0462,0.0437,0.0405,0.0421,0.0395,0.0374,0.0425,0.0402,0.0403,0.0404,0.0372,0.037,0.0391,0.0391,0.039,0.039,0,0.012,0.0188,0.0237,0.0327,0.0376,0.0454,0.0494,0.0536,0.057,0.0577,0.0585,0.0544,0.0524,0.0508,0.0484,0.0471,0.0457,0.0416,0.0393,0.0415,0.0379,0.0375,0.0398,0.0397,0.0395,0.0394,0,0,0.0121,0.0258,0.0286,0.035,0.0444,0.0493,0.0547,0.0594,0.0618,0.0651,0.0662,0.0635,0.0627,0.0597,0.0555,0.0523,0.0518,0.0499,0.0494,0.0488,0.0437,0.0407,0.0399,0.0486,0.0486,0.0485,0.0415,0,0.0189,0.032,0.0362,0.0492,0.0572,0.0608,0.0643,0.0676,0.0692,0.0705,0.0664,0.0664,0.0654,0.0653,0.0622,0.0531,0.0511,0.0542,0.0401,0.0397,0.0382,0.0393,0.0484,0.0412,0.0411,0.041,0.0409,0,0.0256,0.0335,0.047,0.0575,0.0614,0.0675,0.0731,0.0766,0.0763,0.0773,0.0769,0.0741,0.0709,0.069,0.0589,0.0619,0.0559,0.0489,0.0483,0.0418,0.0358,0.0378,0.0401,0.0402,0.0402,0.0403,0.0403,0,0.0249,0.0408,0.0512,0.056,0.0675,0.0727,0.0774,0.0796,0.0809,0.0823,0.0821,0.0788,0.0759,0.069,0.057,0.0599,0.0428,0.0431,0.0345,0.0342,0.0346,0.0344,0.0365,0.0366,0.0366,0.0366,0.0366,0,0.0282,0.0378,0.0531,0.0593,0.0691,0.076,0.0825,0.0856,0.0869,0.0841,0.0869,0.0779,0.0762,0.0653,0.0572,0.0434,0.0428,0.0365,0.0321,0.0391,0.0394,0.0344,0.0342,0.0363,0.0364,0.0364,0.0365,0,0.0264,0.0371,0.0503,0.0653,0.0702,0.0773,0.0866,0.0879,0.0914,0.0872,0.0882,0.0793,0.0657,0.0604,0.0446,0.042,0.0289,0.0233,0.0315,0.0274,0.0254,0.0258,0.0191,0.0189,0.0187,0.0186,0.0185,0,0.0263,0.0341,0.0535,0.0599,0.0682,0.0788,0.0829,0.0899,0.0879,0.0799,0.0734,0.0645,0.0569,0.034,0.0274,0.0185,0.0162,0.0161,0.0244,0.0272,0.0235,0.0242,0.0248,0.0183,0.0183,0.0182,0.0182,0,0.0254,0.0345,0.0435,0.0569,0.0663,0.0736,0.0791,0.0756,0.076,0.0816,0.0611,0.0529,0.0365,0.0252,0.0215,0.011,0.0212,0.0148,0.0152,0.0229,0.0262,0.0228,0.0236,0.0177,0.0178,0.0178,0.0178,0,0.024,0.0287,0.0408,0.0516,0.0615,0.0625,0.067,0.0632,0.0633,0.0577,0.0448,0.0324,0.0289,0.0195,0.0075,0.0076,0.0104,0.0158,0.0163,0.0168,0.0194,0.0234,0.0107,0,0,0,0,0,0.0219,0.0252,0.0335,0.0442,0.0527,0.0581,0.0603,0.062,0.0599,0.0478,0.0496,0.0333,0.0214,0.0094,0.0091,0.0043,0.009,0.0041,0.0153,0.015,0.0155,0.0188,0,0,0,0,0,0,0.0196,0.0268,0.0302,0.035,0.0393,0.0465,0.046,0.0454,0.0384,0.0373,0.0284,0.0365,0.0217,0.023,0.0096,0.0087,0.0165,0.0018,0.0019,0.0146,0.0152,0.0156,0.0191,0,0,0,0,0]},{"header":{"parameterUnit":"m.s-1","parameterCategory":2,"la1":30.2991,"la2":30.254,"lo1":-89.0895,"lo2":-89.0444,"dy":0.0017,"dx":0.0017,"nx":28,"ny":28,"refTime":"2025-07-03T03:00:00:Z","depth":"4","parameterNumber":3,"parameterNumberName":"V-component_of_CURRENTS"},"data":[0,0,0,0,0,0,0,0,0,0,0,0,0,0,0,0,0,0,0,0,0,0,0,0,0,0,0,0,0,0,0,0,0,0,0,0,0,0,0,0,0,0,0,0,0,0,0,0,0,0,0,0,0,0,0,0,0,0,0.0645,0.0647,0,0.0645,0.0643,0.0642,0.0594,0.0594,0.0594,0.0594,0.0426,0.0422,0.0417,0,0,0,0,0,0,0,0,0,0,0,0,0,0.062,0.0619,0.0645,0.0647,0.0648,0.0645,0.0643,0.0642,0.0594,0.0594,0.0594,0.0594,0.0427,0.0422,0.0417,0,0,0,0,0,0,0,0,0,0,0,0,0,0.0613,0.0619,0.0645,0.0634,0.0634,0.0645,0.0643,0.0642,0.0594,0.0594,0.0594,0.0594,0.0429,0.0423,0.0416,0.0374,0,0,0.0395,0.0393,0,0,0,0,0,0,0,0,0.0613,0.0612,0.0634,0.0635,0.0635,0.0632,0.0574,0.0549,0.0594,0.0594,0.0594,0.0594,0.0488,0.0477,0.0459,0.0366,0.0359,0.0395,0.0391,0.0388,0.0386,0,0,0,0,0,0,0,0.0614,0.0612,0.0631,0.0636,0.0636,0.0635,0.0632,0.0568,0.0527,0.0594,0.0594,0.0616,0.0485,0.0466,0.0455,0.0357,0.0395,0.0389,0.0385,0.0382,0.0177,0.0176,0,0,0,0,0,0,0.0641,0.0612,0.0631,0.0632,0.0639,0.0636,0.0632,0.0621,0.0532,0.0524,0.0616,0.0614,0.0477,0.0462,0.0448,0.0343,0.0388,0.0382,0.0378,0.0178,0.0177,0.0175,0,0,0,0,0,0,0.0639,0.0641,0.0632,0.0635,0.0636,0.0638,0.0625,0.0622,0.06,0.0553,0.0538,0.06,0.0477,0.0458,0.0372,0.0339,0.0379,0.0372,0.018,0.0178,0.0176,0.0165,0,0,0,0,0,0,0.0638,0.0639,0.0642,0.0636,0.0637,0.0627,0.0626,0.0622,0.0621,0.0617,0.0534,0.0519,0.0475,0.0382,0.0365,0.033,0.0367,0.0182,0.0179,0.0177,0.0167,0.0163,0.0159,0,0,0,0,0,0.0636,0.062,0.064,0.0645,0.0638,0.0628,0.0625,0.0619,0.062,0.0599,0.054,0.0521,0.0354,0.0375,0.0356,0.0318,0.0183,0.018,0.0177,0.0169,0.0164,0.0159,0,0,0,0,0,0,0.0584,0.0616,0.0637,0.0626,0.0635,0.0625,0.0639,0.0619,0.0559,0.0554,0.0494,0.0473,0.0387,0.0355,0.0381,0.0252,0.0269,0.0261,0.027,0.0264,0.026,0.0268,0.0362,0,0,0,0,0,0.0588,0.0611,0.0618,0.0624,0.0639,0.0641,0.0642,0.0621,0.0582,0.0557,0.0494,0.0428,0.036,0.0316,0.0252,0.0176,0.0166,0.0143,0.0139,0.0136,0.0129,0.0081,0.0072,0.0165,0.0165,0.0165,0,0,0.0603,0.0605,0.0635,0.0622,0.0647,0.0625,0.0637,0.0633,0.0582,0.0545,0.0455,0.0407,0.0337,0.0251,0.0211,0.0218,0.0107,0.0131,0.0129,0.0124,0.0077,0.0068,0.006,0.0163,0.0163,0.0163,0,0,0.0612,0.0624,0.0646,0.0635,0.065,0.0628,0.0626,0.0596,0.0561,0.0477,0.0437,0.0368,0.0264,0.0201,0.016,0.0095,0.0089,0.0082,0.0059,0.0013,0.0005,-0.0002,-0.0005,-0.0012,0.0078,0.0078,0.0078,0,0.0618,0.0619,0.0649,0.063,0.0624,0.0625,0.0602,0.0558,0.0484,0.0446,0.0445,0.029,0.0236,0.0127,0.0108,0.0083,0.0078,0.0085,0.0009,0.0001,-0.0006,-0.0007,-0.0015,0.0077,0.0077,0.0077,0.0077,0,0.0618,0.062,0.0631,0.0612,0.0593,0.0577,0.0533,0.0482,0.0446,0.0395,0.0293,0.022,0.0137,0.0106,0.0084,0.0001,0.0022,0.0013,0.0026,-0.0015,-0.0014,-0.0022,0.0076,0.0076,0.0076,0.0077,0,0,0.064,0.0635,0.0643,0.0632,0.0572,0.0554,0.0478,0.0409,0.0362,0.0279,0.0206,0.0097,0.0085,0.0039,0.0003,-0.0045,-0.0088,-0.003,-0.0033,-0.0023,-0.0156,-0.0108,-0.0112,-0.0105,-0.0107,-0.0108,-0.0126,0,0.0639,0.0609,0.0589,0.0555,0.0543,0.0493,0.0425,0.0349,0.0288,0.0208,0.0135,0.0062,0.0052,0.0028,-0.0028,-0.0084,-0.0113,-0.008,-0.0126,-0.0127,-0.0072,-0.0122,-0.0115,-0.0132,-0.0134,-0.0135,-0.0136,0,0.0639,0.0617,0.0592,0.0533,0.0527,0.0488,0.0397,0.0332,0.0222,0.0178,0.0098,0.0045,-0.0048,-0.0033,-0.0143,-0.0116,-0.0129,-0.0162,-0.0163,-0.0123,-0.0095,-0.009,-0.015,-0.0149,-0.0148,-0.0147,-0.0146,0,0.0649,0.0612,0.0594,0.0572,0.0501,0.048,0.0438,0.0338,0.0285,0.0182,0.0137,0.0019,-0.0029,-0.0092,-0.0143,-0.0144,-0.024,-0.0251,-0.0218,-0.0213,-0.0242,-0.0235,-0.0309,-0.0309,-0.0309,-0.0309,-0.0308,0,0.0618,0.0618,0.0615,0.0602,0.057,0.0518,0.047,0.0406,0.032,0.0239,0.0153,0.006,-0.0045,-0.0117,-0.0154,-0.0203,-0.0241,-0.023,-0.0228,-0.0242,-0.0235,-0.0245,-0.0238,-0.0309,-0.0309,-0.0309,-0.0309,0,0.062,0.0625,0.0616,0.0586,0.0584,0.0569,0.052,0.0466,0.04,0.0295,0.0267,0.0097,-0.0005,-0.0076,-0.0183,-0.0205,-0.0258,-0.0249,-0.0227,-0.0222,-0.0195,-0.0189,-0.0247,-0.0246,-0.0245,-0.0244,-0.0243,0,0.0594,0.0606,0.0628,0.0635,0.0633,0.0618,0.059,0.0523,0.0451,0.0295,0.022,0.0111,0.0004,-0.0119,-0.0179,-0.0221,-0.0219,-0.0227,-0.0252,-0.0204,-0.0196,-0.0191,-0.0186,-0.0242,-0.0241,-0.0241,-0.0241,0,0.0547,0.0601,0.0591,0.0632,0.0636,0.0603,0.0559,0.0492,0.0376,0.036,0.0162,0.007,-0.004,-0.0144,-0.0139,-0.0183,-0.023,-0.0217,-0.022,-0.0244,-0.0198,-0.019,-0.0186,-0.0237,-0.0238,-0.0238,-0.0238,0,0.0527,0.0529,0.0564,0.0583,0.0611,0.0545,0.0512,0.0403,0.0333,0.0171,0.0113,-0.0009,-0.0064,-0.0123,-0.0147,-0.0153,-0.0174,-0.0191,-0.0196,-0.0201,-0.0177,-0.0111,-0.0134,0,0,0,0,0,0.0478,0.0488,0.0501,0.0502,0.0536,0.0553,0.046,0.0407,0.031,0.0181,0.0145,0.0044,-0.0046,-0.0116,-0.0116,-0.0128,-0.0166,-0.0129,-0.0186,-0.0217,-0.0221,-0.0197,0,0,0,0,0,0,0.0448,0.0473,0.0475,0.0449,0.0459,0.0448,0.0391,0.0308,0.0212,0.014,0.0082,0.0097,0.0007,0.0,-0.0086,-0.0093,-0.0127,-0.0147,-0.0147,-0.0215,-0.0219,-0.0222,-0.0199,0,0,0,0,0]}]]